Location: Sabre Springs
(32.9534°N, 117.0945°W)
Time: 06:33:40
(UTC+00:00)

Daily predictions for brighter satellites

Satellite Brightness Start Highest point End
(mag) Time Altitude Azimuth Time Altitude Azimuth Time Altitude Azimuth
STARLINK-1255 3.0 12:01:19 12° SW 12:04:08 63° NW 12:07:14 10° NE
STARLINK-1207 3.0 12:01:23 12° SW 12:04:16 64° NW 12:07:25 10° NE
STARLINK-1272 3.1 12:01:32 11° SW 12:04:31 64° NW 12:07:43 10° NE
STARLINK-1266 3.2 12:04:24 11° SW 12:07:30 58° NW 12:10:42 10° NE
STARLINK-1245 3.7 12:03:59 10° NW 12:08:01 54° SW 12:12:03 10° SSE
STARLINK-1258 3.2 12:05:45 10° WSW 12:08:51 55° NW 12:11:59 10° NE
STARLINK-1284 3.3 12:05:52 10° SW 12:09:02 56° NW 12:12:13 10° NE
STARLINK-1292 3.4 12:08:50 10° WSW 12:12:01 51° NW 12:15:13 10° NE
STARLINK-41 4.0 12:09:58 10° WSW 12:12:50 32° NW 12:15:42 10° NNE
STARLINK-1233 3.8 12:08:59 10° NW 12:12:58 48° SW 12:16:56 10° SSE
STARLINK-1274 3.5 12:10:28 10° WSW 12:13:37 49° NW 12:16:48 10° NNE
SL-8 Rocket 4.1 12:08:37 10° SSW 12:14:51 61° W 12:21:05 10° N
STARLINK-1289 3.5 12:12:04 10° WSW 12:15:12 47° NW 12:18:22 10° NNE
Okean 3 Rocket 3.6 12:11:00 10° S 12:15:29 86° W 12:20:03 10° N
